Location: Drignac
(45.1667°N, 2.0333°E)
Time: 13:26:30
(UTC+00:00)

Abrixas rocket - Pass Details

Date: 29 March 2020
Orbit: 344 x 351 km, 48.4° (Epoch: 02 June)

Event Time Altitude Azimuth Distance (km) Brightness Sun altitude
Rises 19:43:19 0° 220° (SW) 2,158 6.1 -15.6°
Reaches altitude 10° 19:45:28 10° 208° (SSW) 1,322 4.8 -16.0°
Enters shadow 19:47:06 23° 181° (S) 821 3.5 -16.2°
